www.pogodaiklimat.ru

Погода и климат >> Архив погоды >> Сенегал >> Дакар


АРХИВ ПОГОДЫ в Дакаре

Время (UTC), дата Ветер
(напр.,м/с)
 
Видим.   Явления Облачность Т
(С)
Тd
(С)
f
(%)
Тe
(С)
Тes
(С)
Комфортность P
(гПа)
Po
(гПа)
Тmin
(С)
Tmax
(С)
R
(мм)
R24
(мм)
S
(см)
15 15.08 Ю 4 10 км 8/4 400 м
[Sc Ac trans Ci sp]
+29.1 +22.9 69 +39 +43 очень
душно
1010.8 1007.5
18 15.08 Ю 4 10 км 8/3 400 м
[Sc Ci sp]
+28.8 +23.5 73 +39 +40 очень
душно
1009.8 1006.6 +29.9
21 15.08 ЮЗ 2 8000 м 6/4 400 м
[Sc Ci sp]
+27.4 +23.8 81 +38 +38 очень
душно
1011.5 1008.2
00 16.08 ЮЗ 3 8000 м 5/4 400 м
[Sc Ci sp]
+27.4 +23.8 81 +38 +38 очень
душно
1012.5 1009.3
03 16.08 З 2 8000 м 4/1 400 м
[Sc Ci sp]
+27.0 +24.0 84 +37 +37 очень
душно
1011.9 1008.7
06 16.08 ЮЗ 2 8000 м 6/3 400 м
[Sc Ac trans Ci sp]
+26.8 +24.1 85 +37 +37 очень
душно
1011.4 1008.2 +26.6
09 16.08 Ю 4 10 км 6/4 400 м
[Cu med, cong Ci sp]
+28.4 +24.7 80 +40 +42 очень
душно
1012.3 1009.1
12 16.08 Ю 5 10 км 8/5 450 м
[Cu med, cong Ci fib]
+30.4 +24.5 71 +43 +47 опасность
перегрева
1012.3 1009.0
15 16.08 Ю 5 10 км 6/4 450 м
[Cu med, cong Ci fib]
+31.4 +24.6 67 +44 +49 опасность
перегрева
1011.7 1008.5
18 16.08 Ю 5 10 км 9/1 450 м
[Sc Ci sp]
+29.8 +24.4 73 +42 +43 опасность
перегрева
1010.4 1007.1 +32.0
21 16.08 Ю 2 8000 м 1/1 450 м
[Sc As op]
+28.1 +24.5 81 +40 +40 очень
душно
1012.0 1008.8
00 17.08 Ю 4 8000 м 8/3 450 м
[Sc Ci fib]
+27.9 +23.9 79 +39 +39 очень
душно
1012.9 1009.6
03 17.08 Ю 4 8000 м 9/3 300 м
[Sc Ci sp]
+27.6 +24.3 82 +39 +39 очень
душно
1011.7 1008.5
06 17.08 Ю 1 8000 м 9/1 300 м
[Sc Ci sp]
+27.2 +24.3 84 +38 +38 очень
душно
1011.6 1008.3 +27.0
09 17.08 ЮЗ 2 10 км 8/5 300 м
[Cu med, cong Ci sp]
+28.7 +25.3 82 +42 +44 опасность
перегрева
1012.4 1009.2
12 17.08 ЮЗ 2 10 км {дождь} 8/5 480 м
[Cu Sc Ac As Ci sp]
+31.1 +24.9 70 +45 +52 опасность
перегрева
1013.0 1009.8 0.0
15 17.08 З 3 10 км 8/5 480 м
[Cu Sc Ac cast Ci sp]
+31.4 +25.2 70 +45 +51 опасность
перегрева
1011.9 1008.7
18 17.08 ЮЗ 4 10 км 6/4 480 м
[Cu Sc As op]
+30.0 +24.8 74 +43 +44 опасность
перегрева
1010.8 1007.6 +31.8 0.0
21 17.08 З 2 8000 м 8/4 450 м
[Cb calv Ac As]
+28.0 +24.4 81 +39 +39 очень
душно
1011.9 1008.7
00 18.08 штиль 0 8000 м 6/4 400 м
[Sc Ac As]
+27.6 +24.5 83 +39 +39 очень
душно
1012.7 1009.5
03 18.08 ЮЗ 2 8000 м 5/3 400 м
[Sc Ac trans]
+27.5 +24.7 85 +39 +39 очень
душно
1012.5 1009.3
06 18.08 штиль 0 8000 м 6/1 400 м
[Sc Ac cast Ci sp]
+26.7 +24.4 87 +37 +37 очень
душно
1012.9 1008.9 +26.4 0.0
09 18.08 СЗ 3 10 км 8/1 400 м
[Sc Ac As]
+27.2 +24.9 87 +39 +41 очень
душно
1012.2 1009.0
12 18.08 С 1 10 км {дождь} 9/4 400 м
[Sc Ac cast Ci sp]
+28.8 +25.6 83 +43 +51 опасность
перегрева
1013.6 1010.3 0.1
15 18.08 ЮЗ 3 10 км 9/4 400 м
[Cu Sc Ci sp]
+30.5 +24.7 71 +43 +50 опасность
перегрева
1012.2 1009.0
18 18.08 ЮЗ 3 10 км {снег, дождь} 9/4 400 м
[Cu med, cong Ac trans Ci sp]
+28.4 +24.3 78 +40 +40 очень
душно
1011.2 1008.0 +31.6 0.1
21 18.08 ЮЗ 4 8000 м 8/8 400 м
[Sc]
+27.6 +23.6 79 +38 +38 очень
душно
1012.8 1009.5
00 19.08 В 2 6000 м слаб. ливневой дождь, в посл. час гроза 10/4 400 м
[Sc Ac As]
+22.9 +22.2 96 +31 +31 очень
душно
1014.5 1011.2 38
03 19.08 штиль 0 8000 м в посл. час дождь 9/0
[Ac As]
+24.4 +22.9 91 +32 +32 очень
душно
1013.1 1009.9
06 19.08 С 6 8000 м мгла {гроза, дождь} 6/4 400 м
[Sc Ci sp]
+25.6 +23.4 88 +35 +35 очень
душно
1011.9 1008.7 +22.4 42
09 19.08 С 3 10 км 8/6 400 м
[Sc Ci sp]
+26.5 +24.5 89 +37 +39 очень
душно
1012.8 1009.5
12 19.08 З 2 10 км 8/4 400 м
[Sc Ac trans Ci sp]
+29.1 +25.7 82 +43 +51 опасность
перегрева
1012.4 1009.1
15 19.08 ЮЗ 50 10 км 8/5 400 м
[Sc Ac trans Ci sp]
+29.4 +25.2 78 +43 +43 опасность
перегрева
1012.0 1008.8
18 19.08 СЗ 3 10 км 9/6 400 м
[Cb calv Ac As]
+37.9 +24.5 47 +50 +51 опасность
перегрева
1011.8 1008.5 +29.8
21 19.08 С 3 10 км 4/3 400 м
[Sc Ac trans]
+27.2 +24.6 86 +39 +39 очень
душно
1012.6 1009.4
00 20.08 С 6 8000 м 9/9 300 м
[Sc]
+27.2 +25.2 89 +39 +39 очень
душно
1013.2 1009.9
03 20.08 С 5 8000 м 6/6 300 м
[Sc]
+26.8 +25.1 90 +39 +39 очень
душно
1011.5 1008.3
06 20.08 С 5 8000 м 8/6 300 м
[Sc Cc]
+26.5 +24.9 91 +38 +38 очень
душно
1011.2 1008.0 +26.3
09 20.08 С 4 10 км 8/4 300 м
[Sc Ac trans Ci sp]
+28.2 +25.5 85 +41 +43 опасность
перегрева
1011.8 1008.6
12 20.08 С 3 10 км 1/1 400 м
[Sc Ci sp]
+29.6 +26.3 82 +45 +60 опасность
перегрева
1012.3 1009.1
15 20.08 ЮЗ 4 10 км 3/3 400 м
[Sc Ac trans]
+30.5 +26.1 77 +46 +54 опасность
перегрева
1010.7 1007.5
18 20.08 З 4 10 км 8/3 400 м
[Sc Cs]
+29.8 +24.0 71 +41 +42 опасность
перегрева
1010.8 1007.6 +31.0
21 20.08 СЗ 3 8000 м 5/4 400 м
[Sc Ci sp]
+28.0 +25.5 86 +41 +41 опасность
перегрева
1011.6 1008.3
00 21.08 ЮЗ 4 8000 м 4/4 450 м
[Sc]
+27.6 +25.3 87 +40 +40 очень
душно
1012.5 1009.3
03 21.08 ЮЗ 5 8000 м 5/4 400 м
[Sc]
+27.5 +24.7 85 +39 +39 очень
душно
1011.0 1007.8
06 21.08 ЮЗ 3 8000 м 3/3 450 м
[Sc]
+26.7 +25.9 95 +40 +40 очень
душно
1010.1 1006.9 +26.6
09 21.08 З 2 10 км 9/6 400 м
[Sc Cs]
+27.6 +25.6 89 +41 +43 опасность
перегрева
1011.2 1007.9
12 21.08 ЮВ 2 10 км 9/8 400 м
[Sc Cs]
+29.6 +26.3 82 +45 +49 опасность
перегрева
1012.3 1009.0
15 21.08 ЮЗ 4 10 км 9/5 400 м
[Sc Cs]
+30.4 +26.3 79 +46 +51 опасность
перегрева
1009.6 1006.4
18 21.08 ЮЗ 5 10 км 9/6 400 м
[Sc Ci sp]
+28.9 +25.7 83 +43 +43 опасность
перегрева
1008.9 1005.6 +30.5
21 21.08 З 2 8000 м 6/4 400 м
[Cu med, cong Ci sp]
+28.0 +25.2 85 +41 +41 опасность
перегрева
1009.8 1006.5
00 22.08 З 4 8000 м 6/0
[Ac trans Ci sp]
+27.9 +25.2 85 +40 +40 очень
душно
1010.6 1007.4
03 22.08 З 4 8000 м 5/4 400 м
[Sc Ci sp]
+26.1 +25.1 94 +37 +37 очень
душно
1009.5 1006.3
06 22.08 З 1 7000 м гроза, ливневой дождь 10/4 400 м
[Cb cap Ac As]
+27.0 +24.9 88 +39 +39 очень
душно
1008.7 1005.5 +26.9 0.4
09 22.08 штиль 0 7000 м слаб. дождь {гроза} 10/4 400 м
[Sc Ac As]
+24.4 +23.8 96 +33 +34 очень
душно
1010.8 1007.1
12 22.08 штиль 0 7000 м слаб. ливневой дождь, в посл. час гроза 9/6 400 м
[Sc Ac As]
+25.4 +24.4 94 +35 +41 очень
душно
1010.1 1006.8 45

 

Местоположение метеостанции Дакар (Сенегал): широта 14.73 долгота -17.50 высота над уровнем моря 24 м.

В архиве по умолчанию представлена погода в Дакаре за последнюю неделю. Архивные данные за месяц целиком и за предыдущие месяцы, начиная с января 2011 года, Вы можете получить, выбрав интересующий диапазон дат из раскрывающегося списка и нажав кнопку "Ввод!".


*Определитесь, кто Вы:
робот инопланетянин человек

Внимание! Время в таблицах - всемирное. Для получения местного времени необходимо прибавить поправку, которая равна 0 ч.

Смотрите также архив погоды в соседних городах и на ближайших метеорологических станциях:

Погода в Диурбеле (Сенегал) (137 км)
Погода в Каолаке (Сенегал) (169 км)
Погода в Банжуле (Гамбия) (180 км)
Погода в Банжуле Half-Die (Гамбия) (182 км)
Погода в Сент-Луисе (Сенегал) (185 км)
Погода в Кереване (Гамбия) (205 км)
Погода в Сапу (Гамбия) (213 км)
Погода в Сибаноре (Гамбия) (219 км)
Погода в Женое (Гамбия) (250 км)
Погода в Кауере (Гамбия) (261 км)

Пояснения к столбцам:

Ветер - указаны скорость ветра в м/с - средняя за 10 мин, порывы в срок и между сроками (в фигурных скобках) и направление, откуда дует ветер: С - северный, СВ - северо-восточный, В - восточный, ЮВ - юго-восточный, Ю - южный, ЮЗ - юго-западный, З - западный, СЗ - северо-западный.
Видимость - горизонтальная дальность видимости в метрах или километрах. При видимости от 1 до 10 км при отсутствии осадков обычно наблюдается дымка, при ухудшении видимости до 1 км и менее - туман. В сухую погоду видимость может ухудшаться дымом, пылью или мглою.
Явления - указаны атмосферные явления, наблюдавшиеся в срок или в последний час перед сроком; фигурными скобками обозначены явления, наблюдавшиеся между сроками (за 1-3 часа до срока); квадратными скобками обозначены град или гололедные отложения с указанием их диаметра в мм.
Облачность - указаны через наклонную черту общая и нижняя облачность в баллах и высота нижней границы облаков в метрах; квадратными скобками обозначены формы облаков: Ci - перистые, Cs - перисто-слоистые, Cc - перисто-кучевые, Ac - высококучевые, As - высокослоистые, Sc - слоисто-кучевые, Ns - слоисто-дождевые, Cu - кучевые, Cb - кучево-дождевые. Подробнее классификацию облаков см. в Атласе облаков (PDF).
T - Температура воздуха - температура, измеренная на высоте 2 м над землей.
Td - Температура точки росы - температура, при понижении до которой содержащийся в воздухе водяной пар достигнет насыщения.
f - Относительная влажность воздуха - влажноcть воздуха, измеренная на высоте 2 м над землей.
Te - Эффективная температура - температура, которую ощущает одетый по сезону человек в тени. Характеристика душности погоды. При расчете учитывается влияние влажности воздуха и скорости ветра на теплоощущения человека.
Tes - Эффективная температура на солнце - температура, которую ощущает человек, с поправкой на солнечный нагрев. Характеристика знойности погоды. Зависит от высоты солнца над горизонтом, облачности и скорости ветра. Ночью, в пасмурную погоду, а также при ветре 12 м/с и более поправка равна нулю.
P - Атмосферное давление - приведенное к уровню моря атмосферное давление.
Po - Атмосферное давление - измеренное на уровне метеостанции атмосферное давление.
Tmin - Минимальная температура - минимум температуры воздуха на высоте 2 м над землей.
Tmax - Максимальная температура - максимум температуры воздуха на высоте 2 м над землей.
R - Количество осадков - Количество выпавших осадков за период времени, мм. При наведении курсора мыши на число - период времени, за который выпало указанное количество осадков.
R24 - Количество осадков - Количество выпавших осадков за 24 часа, мм.
S - Снежный покров - Высота снежного покрова, см. При наведении курсора мыши на число - состояние снежного покрова и степень покрытия местности в баллах.